Abilene Dyess, TX

9:44 PM CDT on August 16, 2017 (GMT -0500)
Dyess Air Force Base

Weather History for KDYS - November, 2012

Change the Weather History Date:

Thursday, November 1, 2012

  Actual Average Record
Temperature  
Mean Temperature 64 °F -  
Max Temperature 83 °F 68 °F 88 °F (2016)
Min Temperature 45 °F 48 °F 35 °F (2005)
Degree Days  
Heating Degree Days 1    
Growing Degree Days 14 (Base 50)    
Moisture  
Dew Point 45 °F    
Average Humidity 56    
Maximum Humidity 81    
Minimum Humidity 21    
Precipitation  
Precipitation 0.00 in - - ()
Sea Level Pressure  
Sea Level Pressure 29.99 in    
Wind  
Wind Speed 5 mph (SSW)    
Max Wind Speed 13 mph    
Max Gust Speed 20 mph    
Visibility 10 miles    
Events      
Averages and records for this station are not official NWS values.
T = Trace of Precipitation, MM = Missing Value Source: NWS Daily Summary

Daily Weather History Graph

Daily Weather History Graph

Search for Another Location

Airport or City:

Trip Planner

Search our weather history database for the weather conditions in past years. The results will help you decide how hot, cold, wet, or windy it might be!

Date:

Astronomy

Nov. 01, 2012 Rise Set
Actual Time 7:57 AM CDT 6:48 PM CDT
Civil Twilight 7:31 AM CDT 7:13 PM CDT
Nautical Twilight 7:02 AM CDT 7:42 PM CDT
Astronomical Twilight 6:33 AM CDT 8:11 PM CDT
Moon 8:54 PM CDT (11/1) 10:24 AM CDT (11/1)
Length of Visible Light 11h 42m
Length of Day
10h 51m
Waning Gibbous, 93% of the Moon is Illuminated
Nov 1
Waning Gibbous
Nov 6
Last Quarter
Nov 13
New
Nov 20
First Quarter
Nov 28
Full

Hourly Weather History & Observations

Time (CDT) Temp. Dew Point Humidity Pressure Visibility Wind Dir Wind Speed Gust Speed Precip Events Conditions
12:55 AM 54.3 °F 43.3 °F 66% 30.01 in 10.0 mi South 3.5 mph - N/A   Clear
1:55 AM 53.8 °F 42.4 °F 65% 30.01 in 10.0 mi Calm Calm - N/A   Clear
2:55 AM 48.0 °F 42.4 °F 81% 30.02 in 10.0 mi South 8.1 mph - N/A   Clear
3:55 AM 51.3 °F 42.3 °F 71% 30.00 in 10.0 mi South 4.6 mph - N/A   Clear
4:55 AM 47.5 °F 39.9 °F 75% 29.99 in 10.0 mi South 5.8 mph - N/A   Clear
5:55 AM 49.5 °F 41.9 °F 75% 29.99 in 10.0 mi Calm Calm - N/A   Clear
6:55 AM 48.6 °F 41.5 °F 77% 30.01 in 10.0 mi Calm Calm - N/A   Clear
7:55 AM 45.3 °F 39.7 °F 81% 30.04 in 10.0 mi Calm Calm - N/A   Clear
8:55 AM 55.4 °F 48.0 °F 76% 30.05 in 10.0 mi Calm Calm - N/A   Clear
9:55 AM 68.0 °F 54.5 °F 62% 30.05 in 10.0 mi West 4.6 mph - N/A   Clear
10:55 AM 74.8 °F 54.9 °F 50% 30.06 in 10.0 mi WSW 6.9 mph - N/A   Clear
11:55 AM 79.5 °F 49.5 °F 35% 30.04 in 10.0 mi SSW 10.4 mph - N/A   Clear
12:55 PM 81.0 °F 45.0 °F 28% 30.01 in 10.0 mi SW 12.7 mph - N/A   Clear
1:55 PM 82.4 °F 44.8 °F 27% 29.98 in 10.0 mi SSW 11.5 mph 19.6 mph N/A   Clear
2:55 PM 82.8 °F 43.5 °F 25% 29.95 in 10.0 mi SSW 9.2 mph - N/A   Clear
3:55 PM 83.5 °F 44.8 °F 26% 29.94 in 10.0 mi SSW 12.7 mph - N/A   Clear
4:55 PM 83.3 °F 39.7 °F 21% 29.93 in 10.0 mi South 12.7 mph - N/A   Clear
5:55 PM 80.2 °F 45.0 °F 29% 29.93 in 10.0 mi South 9.2 mph - N/A   Clear
6:55 PM 70.7 °F 48.9 °F 46% 29.94 in 10.0 mi SSE 5.8 mph - N/A   Clear
7:55 PM 62.2 °F 47.3 °F 58% 29.96 in 10.0 mi Calm Calm - N/A   Clear
8:55 PM 58.3 °F 46.0 °F 64% 29.96 in 10.0 mi South 4.6 mph - N/A   Clear
9:55 PM 57.4 °F 46.8 °F 68% 29.95 in 10.0 mi Calm Calm - N/A   Clear
10:55 PM 56.1 °F 45.1 °F 67% 29.96 in 10.0 mi SSW 6.9 mph - N/A   Clear
11:55 PM 54.9 °F 45.1 °F 70% 29.94 in 10.0 mi South 8.1 mph - N/A   Clear